This is the latest recevied weather packets stored in our database for station/object WC4PEM-11. If no packets are shown the sender has not sent any weather packets the latest 10 day(s).
| Time | Temp. | Humidity | Pressure | Rain* | Wind** | Luminosity | Snow |
|---|---|---|---|---|---|---|---|
| 1787776398 | 28.33° C | 83% | 1015.2 hPa | 0 mm | - | - | - |
| 1787776098 | 28.33° C | 80% | 1015.2 hPa | 0 mm | - | - | - |
| 1787775798 | 28.89° C | 76% | 1015.4 hPa | 0 mm | - | - | - |
| 1787775498 | 30.56° C | 73% | 1015.2 hPa | 0 mm | - | - | - |
| 1787775315 | 31.11° C | 72% | 1015 hPa | 0 mm | - | - | - |
| 1787775198 | 31.11° C | 72% | 1015 hPa | 0 mm | - | - | - |
| 1787774898 | 31.67° C | 69% | 1015 hPa | 0 mm | - | - | - |
| 1787774704 | 32.22° C | 75% | 1014.9 hPa | 0 mm | - | - | - |
| 1787774598 | 32.22° C | 75% | 1014.9 hPa | 0 mm | - | - | - |
| 1787774402 | 32.22° C | 69% | 1014.9 hPa | 0 mm | - | - | - |
| 1787774298 | 32.22° C | 69% | 1014.9 hPa | 0 mm | - | - | - |
| 1787773998 | 32.78° C | 65% | 1014.9 hPa | 0 mm | - | - | - |
| 1787773698 | 32.78° C | 64% | 1014.9 hPa | 0 mm | - | - | - |
| 1787773398 | 33.33° C | 59% | 1015.1 hPa | 0 mm | - | - | - |
| 1787773098 | 33.33° C | 59% | 1015.1 hPa | 0 mm | - | - | - |
| 1787772798 | 33.33° C | 57% | 1015.3 hPa | 0 mm | - | - | - |
| 1787772498 | 33.89° C | 56% | 1015.3 hPa | 0 mm | - | - | - |
| 1787772198 | 34.44° C | 55% | 1015.3 hPa | 0 mm | - | - | - |
| 1787771898 | 34.44° C | 53% | 1015.3 hPa | 0 mm | - | - | - |
| 1787771744 | 34.44° C | 52% | 1015.2 hPa | 0 mm | - | - | - |
| 1787771598 | 34.44° C | 52% | 1015.2 hPa | 0 mm | - | - | - |
| 1787771298 | 35° C | 54% | 1015.2 hPa | 0 mm | - | - | - |
| 1787770998 | 34.44° C | 53% | 1015.3 hPa | 0 mm | - | - | - |
| 1787770698 | 34.44° C | 56% | 1015.4 hPa | 0 mm | - | - | - |
| 1787770399 | 33.89° C | 55% | 1015.4 hPa | 0 mm | - | - | - |
* Rain latest hour (hover to see other rain measurements)
** Current wind speed in m/s (hover to see current wind gust speed)